カタログに戻る

FENGYUN 1C DEB

運用中SSO
NORAD 29970·DEBRIS·🇨🇳 China

打ち上げ May 10, 1999 から Taiyuan Satellite Launch Center

Loading…

次のパス (今後24時間)

TLE

最新Source: Space-Track

元期: Sep 14, 2026, 14:54 UTC

1 29970U 99025KU  26257.62109083  .00001072  00000-0  30671-3 0  9993
2 29970  98.8260 201.1449 0091227  83.5152  88.4778 14.44822571 31035

AllMySatでFENGYUN 1C DEBをリアルタイム追跡

Download on the App Store